When you browse on this site, cookies collect data to enhance your experience and personalize the content and advertising you see.
Visit our Privacy Policy to learn more. By continuing to use the site, you agree to this use of cookies and data.
  • In Portugal
  • List of Countries
  • For 7 days
  • Water Temperature
  • Weather Map
  • Weather Widgets
  • user-avatar
    Login

    Hourly Weather Biskamzha

    Today, 26 May, Tuesday

    Time Temperature Precipitation Wind Pressure Humidity
    00:00 +15°C° 0 mm 2 mps 707 mmHg 97%
    01:00 +15°C° 0.1 mm 2 mps 707 mmHg 97%
    02:00 +15°C° 0.1 mm 1 mps 707 mmHg 97%
    03:00 +15°C° 0.1 mm 1 mps 707 mmHg 97%
    04:00 +16°C° 0 mm 1 mps 707 mmHg 96%
    05:00 +16°C° 0 mm 2 mps 706 mmHg 95%
    06:00 +16°C° 0 mm 2 mps 707 mmHg 94%
    07:00 +17°C° 0 mm 2 mps 706 mmHg 91%
    08:00 +17°C° 0 mm 2 mps 706 mmHg 89%
    09:00 +18°C° 0 mm 2 mps 706 mmHg 86%
    10:00 +20°C° 0.1 mm 3 mps 705 mmHg 79%
    11:00 +21°C° 0.1 mm 4 mps 705 mmHg 71%
    12:00 +23°C° 0 mm 4 mps 704 mmHg 65%
    13:00 +23°C° 1.1 mm 5 mps 703 mmHg 66%
    14:00 +23°C° 1.1 mm 5 mps 702 mmHg 67%
    15:00 +23°C° 1.1 mm 5 mps 701 mmHg 68%
    16:00 +23°C° 0.5 mm 6 mps 700 mmHg 68%
    17:00 +23°C° 0.5 mm 6 mps 699 mmHg 67%
    18:00 +23°C° 0.5 mm 6 mps 698 mmHg 66%
    19:00 +22°C° 0.3 mm 7 mps 697 mmHg 65%
    20:00 +22°C° 0.3 mm 8 mps 696 mmHg 63%
    21:00 +21°C° 0.3 mm 8 mps 696 mmHg 62%
    22:00 +17°C° 0.2 mm 8 mps 696 mmHg 69%
    23:00 +13°C° 0.2 mm 8 mps 695 mmHg 76%

    Tomorrow, 27 May, Wednesday

    Time Temperature Precipitation Wind Pressure Humidity
    00:00 +10°C° 0.2 mm 7 mps 695 mmHg 82%
    01:00 +10°C° 0 mm 6 mps 696 mmHg 84%
    02:00 +9°C° 0 mm 5 mps 696 mmHg 86%
    03:00 +9°C° 0 mm 5 mps 697 mmHg 88%
    04:00 +8°C° 0.6 mm 4 mps 698 mmHg 90%
    05:00 +9°C° 0.6 mm 3 mps 699 mmHg 92%
    06:00 +9°C° 0.6 mm 2 mps 699 mmHg 95%
    07:00 +7°C° 1.4 mm 2 mps 700 mmHg 95%
    08:00 +6°C° 1.4 mm 2 mps 700 mmHg 96%
    09:00 +4°C° 1.4 mm 2 mps 701 mmHg 96%
    10:00 +5°C° 0.6 mm 2 mps 701 mmHg 91%
    11:00 +7°C° 0.6 mm 1 mps 702 mmHg 87%
    12:00 +8°C° 0.6 mm 1 mps 703 mmHg 82%
    13:00 +9°C° 0.1 mm 1 mps 703 mmHg 77%
    14:00 +10°C° 0.1 mm 1 mps 704 mmHg 73%
    15:00 +11°C° 0.1 mm 1 mps 704 mmHg 68%
    16:00 +10°C° 0.9 mm 1 mps 704 mmHg 75%
    17:00 +9°C° 0.9 mm 1 mps 704 mmHg 82%
    18:00 +8°C° 0.9 mm 1 mps 704 mmHg 89%
    19:00 +8°C° 0.8 mm 1 mps 705 mmHg 91%
    20:00 +7°C° 0.8 mm 1 mps 705 mmHg 93%
    21:00 +5°C° 0.8 mm 0 mps 705 mmHg 95%
    22:00 +5°C° 0.1 mm 0 mps 705 mmHg 95%
    23:00 +5°C° 0.1 mm 0 mps 706 mmHg 95%

    Day after tomorrow, 28 May, Thursday

    Time Temperature Precipitation Wind Pressure Humidity
    00:00 +5°C° 0.1 mm 0 mps 706 mmHg 96%
    01:00 +5°C° 0.1 mm 0 mps 706 mmHg 96%
    02:00 +5°C° 0.1 mm 0 mps 706 mmHg 96%
    03:00 +4°C° 0.1 mm 0 mps 706 mmHg 97%
    04:00 +5°C° 0.2 mm 0 mps 706 mmHg 95%
    05:00 +5°C° 0.2 mm 0 mps 706 mmHg 94%
    06:00 +5°C° 0.2 mm 0 mps 706 mmHg 93%
    07:00 +6°C° 0.2 mm 0 mps 706 mmHg 89%
    08:00 +8°C° 0.2 mm 1 mps 706 mmHg 85%
    09:00 +9°C° 0.2 mm 1 mps 706 mmHg 81%
    10:00 +10°C° 0.2 mm 1 mps 706 mmHg 77%
    11:00 +10°C° 0.2 mm 1 mps 706 mmHg 73%
    12:00 +11°C° 0.2 mm 1 mps 706 mmHg 68%
    13:00 +10°C° 0.1 mm 2 mps 706 mmHg 66%
    14:00 +10°C° 0.1 mm 2 mps 706 mmHg 64%
    15:00 +12°C° 0.1 mm 2 mps 705 mmHg 61%
    16:00 +10°C° 0.1 mm 2 mps 705 mmHg 62%
    17:00 +10°C° 0.1 mm 2 mps 705 mmHg 64%
    18:00 +10°C° 0.1 mm 2 mps 705 mmHg 65%
    19:00 +9°C° 0 mm 2 mps 705 mmHg 72%
    20:00 +8°C° 0 mm 1 mps 705 mmHg 79%
    21:00 +7°C° 0 mm 1 mps 705 mmHg 86%
    22:00 +6°C° 0 mm 1 mps 704 mmHg 88%
    23:00 +5°C° 0 mm 1 mps 704 mmHg 91%

    29 May, Friday

    Time Temperature Precipitation Wind Pressure Humidity
    00:00 +5°C° 0 mm 1 mps 704 mmHg 94%
    01:00 +4°C° 0 mm 1 mps 704 mmHg 94%
    02:00 +3°C° 0 mm 0 mps 704 mmHg 95%
    03:00 +2°C° 0 mm 0 mps 704 mmHg 95%
    04:00 +4°C° 0 mm 0 mps 704 mmHg 91%
    05:00 +5°C° 0 mm 0 mps 704 mmHg 87%
    06:00 +6°C° 0 mm 0 mps 704 mmHg 83%
    07:00 +9°C° 0.1 mm 1 mps 704 mmHg 73%
    08:00 +11°C° 0.1 mm 1 mps 704 mmHg 64%
    09:00 +13°C° 0.1 mm 1 mps 705 mmHg 54%
    10:00 +13°C° 0 mm 1 mps 704 mmHg 53%
    11:00 +13°C° 0 mm 1 mps 704 mmHg 52%
    12:00 +13°C° 0 mm 1 mps 704 mmHg 51%
    13:00 +14°C° 0 mm 1 mps 703 mmHg 48%
    14:00 +15°C° 0 mm 1 mps 703 mmHg 45%
    15:00 +16°C° 0 mm 1 mps 703 mmHg 42%
    16:00 +15°C° 0 mm 1 mps 703 mmHg 44%
    17:00 +15°C° 0 mm 1 mps 703 mmHg 46%
    18:00 +14°C° 0 mm 1 mps 703 mmHg 48%
    19:00 +12°C° 0 mm 1 mps 702 mmHg 57%
    20:00 +8°C° 0 mm 0 mps 702 mmHg 67%
    21:00 +6°C° 0 mm 0 mps 701 mmHg 76%
    22:00 +6°C° 0 mm 0 mps 701 mmHg 78%
    23:00 +5°C° 0 mm 0 mps 701 mmHg 80%

    30 May, Saturday

    Time Temperature Precipitation Wind Pressure Humidity
    00:00 +5°C° 0 mm 0 mps 701 mmHg 82%
    01:00 +4°C° 0 mm 0 mps 700 mmHg 83%
    02:00 +4°C° 0 mm 0 mps 700 mmHg 84%
    03:00 +4°C° 0 mm 0 mps 700 mmHg 85%
    04:00 +6°C° 0 mm 0 mps 700 mmHg 79%
    05:00 +7°C° 0 mm 0 mps 700 mmHg 73%
    06:00 +10°C° 0 mm 1 mps 699 mmHg 67%
    07:00 +12°C° 0 mm 1 mps 699 mmHg 60%
    08:00 +13°C° 0 mm 1 mps 699 mmHg 54%
    09:00 +15°C° 0 mm 2 mps 699 mmHg 48%
    10:00 +15°C° 0 mm 2 mps 698 mmHg 49%
    11:00 +16°C° 0 mm 2 mps 698 mmHg 51%
    12:00 +16°C° 0 mm 2 mps 697 mmHg 53%
    13:00 +16°C° 0.1 mm 2 mps 697 mmHg 57%
    14:00 +15°C° 0.1 mm 2 mps 697 mmHg 60%
    15:00 +15°C° 0.1 mm 2 mps 697 mmHg 64%
    16:00 +15°C° 0.1 mm 2 mps 696 mmHg 67%
    17:00 +15°C° 0.1 mm 2 mps 696 mmHg 70%
    18:00 +14°C° 0.1 mm 1 mps 696 mmHg 74%
    19:00 +13°C° 0.1 mm 1 mps 695 mmHg 80%
    20:00 +12°C° 0.1 mm 1 mps 695 mmHg 86%
    21:00 +11°C° 0.1 mm 1 mps 695 mmHg 92%
    22:00 +11°C° 0.2 mm 1 mps 695 mmHg 93%
    23:00 +11°C° 0.2 mm 1 mps 695 mmHg 95%

    31 May, Sunday

    Time Temperature Precipitation Wind Pressure Humidity
    00:00 +11°C° 0.2 mm 1 mps 695 mmHg 96%
    01:00 +10°C° 0.1 mm 1 mps 696 mmHg 96%
    02:00 +8°C° 0.1 mm 2 mps 696 mmHg 96%
    03:00 +7°C° 0.1 mm 2 mps 696 mmHg 96%
    04:00 +8°C° 0.2 mm 2 mps 696 mmHg 95%
    05:00 +8°C° 0.2 mm 2 mps 697 mmHg 93%
    06:00 +9°C° 0.2 mm 3 mps 697 mmHg 92%
    07:00 +9°C° 0.2 mm 3 mps 697 mmHg 88%
    08:00 +10°C° 0.2 mm 3 mps 698 mmHg 84%
    09:00 +10°C° 0.2 mm 4 mps 698 mmHg 80%
    10:00 +11°C° 0.2 mm 4 mps 699 mmHg 75%
    11:00 +12°C° 0.2 mm 4 mps 699 mmHg 71%
    12:00 +13°C° 0.2 mm 4 mps 700 mmHg 66%
    13:00 +13°C° 0.2 mm 4 mps 700 mmHg 68%
    14:00 +13°C° 0.2 mm 4 mps 700 mmHg 69%
    15:00 +13°C° 0.2 mm 4 mps 701 mmHg 71%
    16:00 +12°C° 0.3 mm 4 mps 701 mmHg 76%
    17:00 +11°C° 0.3 mm 3 mps 701 mmHg 80%
    18:00 +11°C° 0.3 mm 3 mps 701 mmHg 85%
    19:00 +10°C° 0.1 mm 3 mps 701 mmHg 88%
    20:00 +9°C° 0.1 mm 3 mps 702 mmHg 92%
    21:00 +8°C° 0.1 mm 3 mps 702 mmHg 96%
    22:00 +8°C° 0 mm 3 mps 702 mmHg 96%
    23:00 +8°C° 0 mm 2 mps 702 mmHg 96%
    Show more